Theta_e
336 336 336 336 336 337 338 338 338 338 339 339 339 339 336 335 330 327 326 329 330 333 340 337 338 344 345 345 346 346 346 348 350 348 348 349 349 347 344 344 344 344 343 343 342 342 343 342 342 343 344 344 344 346 346 346 348 350 351 353 355 356 357 356 356 355 355 356 356 357 359 361 362 364
336 336 335 336 336 337 337 336 337 338 338 338 339 339 339 338 334 331 328 328 331 330 334 341 339 338 344 346 347 347 347 350 351 350 349 349 349 345 344 344 344 344 343 341 340 340 340 341 341 340 340 341 342 344 344 344 345 346 348 350 352 353 354 354 354 355 354 354 355 355 356 357 358 355
336 334 334 335 334 335 335 336 336 337 338 338 339 340 340 340 337 335 333 329 333 336 334 336 342 342 341 345 347 347 348 350 351 350 350 350 349 347 347 343 342 342 341 340 339 337 336 337 338 337 337 338 339 340 341 342 342 344 345 346 348 349 350 351 352 353 353 353 354 352 353 354 350 349
334 334 333 334 334 335 335 335 335 336 337 338 338 339 339 340 340 338 335 332 331 334 335 334 337 341 342 342 343 344 346 349 352 349 349 350 351 351 350 348 343 340 339 339 338 335 334 335 336 336 337 337 339 340 339 338 339 340 342 342 344 346 347 347 349 350 351 352 351 351 351 350 347 348
335 335 334 334 335 336 334 334 334 335 335 336 337 338 338 338 340 339 336 333 332 335 336 335 337 337 340 340 344 344 345 345 347 350 349 350 349 350 350 350 347 342 338 337 336 335 335 335 335 336 337 338 339 340 341 339 338 338 337 339 340 341 343 344 344 347 348 349 349 349 350 347 346 347
338 337 335 335 336 336 334 334 333 334 334 334 334 335 336 336 338 340 336 334 332 331 332 334 337 337 341 340 341 345 344 344 344 344 344 346 347 348 349 348 349 345 340 335 334 335 335 336 335 335 336 336 337 338 338 337 336 335 335 335 336 337 337 338 340 343 345 346 348 348 348 346 346 347
338 336 336 335 335 335 334 334 333 334 333 334 333 333 334 334 336 339 339 335 332 331 332 334 335 337 339 341 341 343 345 344 343 342 342 344 345 346 347 348 349 345 341 338 335 334 334 335 335 335 335 334 334 334 334 333 333 333 333 333 335 335 336 336 338 340 342 345 347 348 346 345 345 345
336 335 334 334 334 335 334 333 333 334 333 333 332 332 332 334 335 337 338 338 335 334 332 334 336 337 337 339 341 341 340 342 342 342 343 342 343 344 346 347 348 346 341 338 336 335 335 335 334 333 333 332 331 331 331 331 331 331 330 331 331 332 333 333 335 338 338 340 343 346 345 344 343 340
335 334 334 334 334 334 333 334 333 334 333 333 332 332 332 333 334 336 337 337 337 335 333 334 335 336 336 337 337 338 339 338 338 338 341 342 343 343 345 346 348 344 339 337 335 334 333 333 332 332 332 331 330 329 329 328 328 328 328 328 328 329 330 330 329 333 334 335 338 338 340 342 343 341
334 334 334 335 335 334 334 334 335 335 333 333 332 332 332 333 333 334 336 336 336 335 335 334 334 333 334 333 334 335 338 337 336 335 336 336 338 340 341 342 345 346 345 342 339 334 333 331 330 330 331 330 328 327 326 325 324 323 323 321 321 324 326 327 330 330 331 332 335 336 337 340 340 340
334 335 335 335 335 335 335 336 336 336 335 334 333 333 332 333 332 333 334 335 335 334 334 334 334 334 334 334 334 332 335 336 336 335 333 333 334 336 338 339 341 343 343 340 338 338 337 335 334 330 327 329 328 327 325 323 321 320 319 318 317 319 321 322 326 328 328 330 330 330 330 334 338 339
334 334 335 335 336 337 337 337 337 337 336 336 334 335 334 333 332 332 333 334 334 333 333 333 333 333 333 331 333 331 331 330 330 333 334 332 333 334 334 337 338 337 341 340 341 337 335 333 330 328 327 327 328 327 326 326 325 322 319 318 321 321 320 321 322 324 324 324 323 324 326 328 333 336
335 335 335 335 335 337 339 330 330 331 330 336 334 335 335 334 333 332 333 333 333 332 332 332 332 332 331 332 332 330 330 331 333 331 333 333 334 334 333 335 338 339 340 342 342 340 339 335 334 334 334 334 332 330 329 331 331 325 319 319 323 324 322 320 321 322 322 322 322 321 323 326 330 335
335 335 335 337 338 338 331 330 325 324 324 326 333 336 335 335 333 332 332 331 332 331 330 331 331 330 331 332 332 332 332 333 331 330 331 331 333 329 333 335 335 339 341 341 339 341 340 338 336 335 335 337 335 334 333 335 334 331 324 323 323 324 323 320 320 321 321 321 320 320 320 323 327 329
333 334 335 336 337 337 338 335 325 324 323 323 324 326 328 329 335 333 331 331 331 331 331 332 331 330 330 331 333 333 333 332 333 332 332 333 331 332 332 330 331 333 341 341 340 340 341 340 336 335 336 338 336 336 334 334 333 328 325 324 324 324 324 323 322 322 320 319 319 319 319 321 323 325
333 334 335 336 337 337 337 337 336 328 323 323 323 324 324 325 327 329 335 333 332 331 331 331 331 331 330 331 333 333 332 332 332 333 332 332 332 331 331 330 331 333 342 341 339 340 341 341 340 338 337 339 338 338 333 331 331 328 324 324 325 325 324 324 325 325 322 320 321 321 321 322 323 323
333 334 335 335 337 338 328 339 338 338 334 323 322 323 323 323 324 327 329 330 336 335 333 332 332 332 332 332 333 335 334 335 332 332 331 331 331 332 331 332 333 332 342 339 336 338 339 341 339 338 340 339 339 338 332 330 329 327 324 324 325 325 323 323 323 323 321 320 319 321 321 321 321 320
334 334 334 335 336 337 338 337 338 338 336 334 331 328 330 332 328 323 325 326 327 334 335 334 332 335 336 334 335 338 337 335 333 332 331 332 332 331 333 335 334 333 340 338 337 334 334 340 340 338 340 339 339 338 334 328 326 326 324 323 322 322 321 321 321 321 321 320 320 320 317 316 317 318
333 333 335 336 336 336 337 338 337 337 336 335 333 332 332 333 333 332 332 332 333 335 337 337 336 337 338 338 338 337 338 338 337 336 335 334 335 334 333 331 330 330 336 336 338 333 330 337 338 339 339 338 339 338 332 327 325 324 321 322 322 321 320 321 321 320 320 319 318 317 315 315 314 314
334 334 335 334 334 334 334 331 327 332 336 334 333 332 332 333 334 334 328 329 332 335 338 339 339 339 340 333 340 339 339 338 339 339 338 336 335 334 333 333 331 333 336 340 338 331 328 334 337 338 336 336 337 336 335 325 323 322 321 322 321 320 318 319 320 319 319 320 318 316 314 311 311 310
330 333 334 333 332 332 332 326 322 325 326 331 331 330 331 332 333 333 335 327 325 326 325 326 328 329 329 325 325 325 329 338 339 339 335 333 335 334 330 331 330 334 340 341 342 333 328 334 336 335 333 336 335 334 333 328 323 321 319 319 319 318 317 317 317 317 318 319 318 317 316 311 310 311
320 320 321 324 329 331 330 318 319 321 329 331 330 329 330 330 331 333 336 336 333 324 323 323 325 327 327 326 325 326 327 328 333 338 334 335 335 331 330 330 333 335 337 342 344 336 333 333 337 333 331 331 328 330 331 328 325 322 318 319 318 316 316 316 315 316 317 318 318 316 314 310 310 316
319 318 318 317 314 312 313 315 318 320 327 333 332 330 329 329 329 331 334 335 334 333 333 334 332 331 327 330 334 334 325 330 336 340 338 338 335 331 331 331 328 328 329 339 344 338 332 331 331 334 331 328 331 331 333 329 327 326 326 323 321 316 317 315 313 312 313 315 315 316 312 309 311 321
317 318 317 317 310 309 308 306 307 311 323 333 334 334 332 330 329 332 335 336 335 334 335 336 336 335 334 335 335 336 333 333 338 339 340 338 338 337 335 334 330 326 326 332 345 341 335 335 333 333 331 328 326 331 332 330 328 327 326 325 325 318 318 316 313 310 310 311 312 313 311 307 313 324
316 316 316 316 312 308 307 306 306 307 311 316 321 320 321 322 324 325 332 334 335 334 335 335 335 333 334 334 335 335 334 333 334 335 337 341 340 338 337 336 334 334 333 336 338 340 333 336 333 333 329 325 325 330 331 331 329 328 328 328 327 323 321 320 319 318 310 308 309 309 308 309 311 323
317 316 316 315 312 308 307 306 306 306 309 313 321 316 310 313 318 327 329 331 333 334 333 332 332 332 331 332 332 333 333 334 334 334 335 337 340 340 340 340 337 332 329 334 329 335 331 330 331 329 328 330 331 331 329 331 331 329 330 330 330 326 323 323 322 321 319 317 315 311 312 309 312 316
317 317 316 317 312 307 304 304 306 308 310 311 311 307 311 315 318 323 323 326 327 328 329 328 327 327 329 330 331 331 331 333 334 336 336 336 337 339 341 343 342 338 336 338 340 337 333 328 331 330 329 329 330 329 329 330 331 331 330 330 331 329 326 326 323 323 322 320 321 309 308 307 310 313
319 317 316 313 305 303 302 305 307 307 310 313 305 308 313 319 322 325 322 321 322 326 325 326 326 327 328 329 329 330 331 332 331 331 334 335 339 339 340 342 342 338 338 339 339 337 336 331 332 332 331 330 327 328 328 331 333 330 329 331 332 331 327 327 326 326 324 323 322 317 318 315 315 315
318 309 304 304 306 307 308 311 314 314 311 310 310 311 314 321 321 322 323 323 323 323 322 322 323 325 325 326 327 329 329 332 333 332 334 336 336 338 338 336 335 335 337 339 338 337 337 334 333 332 330 329 329 327 327 324 331 332 332 330 329 331 329 328 327 327 326 324 323 319 320 321 318 318
308 307 309 311 312 313 315 321 322 322 319 315 317 318 320 319 321 321 321 320 320 320 320 321 321 321 324 324 325 330 330 330 330 330 330 330 333 334 332 330 329 333 338 338 340 338 338 337 334 332 330 328 329 328 327 326 327 331 333 331 332 334 332 329 328 328 328 325 325 324 323 325 324 321
318 317 316 314 311 313 315 318 317 318 321 322 320 319 320 320 321 323 322 319 318 318 318 319 320 322 323 325 325 324 325 326 327 330 329 327 328 330 329 325 322 324 327 329 334 338 339 339 336 334 330 328 326 328 328 329 326 328 330 332 332 330 330 330 330 329 329 328 328 327 326 325 326 326
321 319 316 317 321 322 320 320 320 320 320 322 321 320 320 321 323 325 328 326 323 322 322 321 322 322 323 322 322 323 323 323 324 327 327 326 325 327 326 322 322 323 323 326 325 327 338 337 337 335 334 331 329 329 327 329 330 330 329 329 329 332 332 330 330 331 331 330 328 327 327 326 325 326
320 319 319 320 320 319 320 320 320 320 320 321 321 324 322 321 322 321 322 322 321 321 321 321 322 323 322 322 322 321 321 321 322 322 326 325 323 323 323 322 321 322 320 319 321 322 323 327 336 337 336 334 333 331 331 325 328 329 331 332 332 333 335 333 332 332 332 329 328 328 328 328 328 328
318 317 319 318 319 320 320 320 320 321 320 320 321 322 320 322 323 322 322 322 323 322 321 322 321 321 321 322 322 320 320 320 320 320 320 322 323 321 321 321 320 321 319 318 319 320 321 324 327 330 331 332 332 330 331 327 322 326 329 329 330 331 331 331 333 335 332 331 329 327 327 329 330 331
317 318 319 319 319 319 320 320 321 321 320 320 320 321 322 322 323 321 323 322 321 321 321 321 322 321 320 320 321 320 320 319 318 320 321 321 320 320 321 320 319 319 318 317 317 319 319 321 320 320 319 322 324 326 329 327 325 322 324 325 327 327 328 331 334 334 334 332 332 329 329 330 330 332
315 315 316 317 318 319 319 319 320 320 320 320 320 320 320 321 322 322 322 322 323 321 321 321 321 321 320 320 320 319 319 318 318 318 318 317 318 319 320 320 319 318 317 316 317 318 320 320 319 317 314 312 312 313 321 324 325 328 329 326 327 329 330 331 332 332 332 332 332 331 329 328 330 331
313 313 314 315 316 316 316 316 317 317 317 318 320 320 320 320 321 322 322 321 323 323 322 321 321 321 320 320 318 318 317 317 318 317 317 317 318 318 319 322 321 318 316 317 317 318 319 320 317 315 312 310 310 310 313 316 316 321 331 324 324 326 328 328 330 329 331 332 332 332 331 331 330 329
312 312 313 313 314 314 315 316 316 315 316 318 320 320 320 320 321 322 322 321 321 321 321 321 321 319 320 318 318 318 317 317 317 316 316 317 316 316 317 318 318 316 314 314 315 316 317 318 315 314 312 311 309 308 310 313 315 322 316 323 321 323 324 326 326 327 327 329 330 331 331 329 330 330
311 312 313 313 314 314 314 315 315 315 315 317 318 319 319 320 320 319 320 320 321 321 321 320 320 319 318 318 317 317 316 315 315 315 315 315 315 315 316 317 317 314 312 312 313 314 316 316 315 314 312 310 310 310 312 313 314 317 315 310 323 323 324 323 323 323 326 326 328 328 330 332 330 326
312 312 312 313 313 314 315 315 315 315 315 316 316 318 318 318 318 319 319 319 320 320 320 320 319 316 317 317 316 316 316 315 314 314 314 314 314 315 315 316 316 313 311 312 313 312 312 316 317 314 313 313 314 314 315 315 315 312 315 314 308 322 324 322 319 320 318 321 319 323 324 321 324 320
313 312 313 313 313 314 314 314 314 315 315 314 317 315 316 316 318 318 318 318 320 319 318 318 317 316 317 316 317 317 316 315 314 314 314 314 314 314 315 315 313 312 312 311 310 311 312 314 320 321 322 316 316 312 310 309 309 310 311 315 308 308 311 316 320 317 315 317 320 320 318 318 318 319
311 310 310 310 308 308 308 307 308 311 311 312 313 314 315 315 316 315 318 319 318 317 317 317 316 316 316 316 316 315 316 315 314 314 314 313 312 312 314 313 313 310 310 310 310 311 313 313 319 318 316 315 314 309 307 307 308 309 310 311 313 310 308 307 307 313 322 321 319 316 316 315 314 313
304 302 302 302 302 301 300 300 301 302 303 304 303 305 307 308 308 308 309 310 312 315 315 315 315 316 315 315 315 316 315 314 313 313 313 312 312 312 312 312 312 312 312 312 312 312 311 313 313 313 312 311 310 310 308 309 307 307 307 309 311 312 313 312 309 307 310 314 314 315 314 312 308 303
298 297 296 296 296 296 296 295 295 296 297 298 299 299 299 300 300 299 299 299 299 300 306 312 314 314 315 315 315 314 314 315 314 313 313 312 311 312 312 312 312 311 311 311 310 311 311 311 312 312 311 311 310 309 308 308 308 308 307 307 309 308 311 312 314 310 310 311 311 310 312 314 313 314
296 295 294 293 293 293 293 293 292 292 292 293 294 295 295 294 295 295 295 294 294 295 297 300 305 310 313 313 313 314 313 312 312 313 313 312 311 311 311 312 311 311 311 311 311 311 309 309 310 310 309 310 310 310 311 311 308 307 308 308 310 309 308 310 310 310 310 310 310 309 309 310 312 311
Wind_Speed
13 11 14 12 11 11 11 11 11 10 10 10 10 10 11 9 9 8 7 9 6 3 7 4 3 7 7 7 7 7 7 8 10 8 8 8 8 11 14 16 17 17 18 18 18 18 19 19 18 18 18 18 16 16 16 17 17 17 18 18 17 17 17 16 16 16 16 15 15 15 14 14 13 14
11 12 11 11 11 10 10 10 12 11 11 11 11 11 10 9 11 9 9 10 4 3 3 6 5 2 5 6 6 6 7 9 10 7 7 7 7 12 14 15 15 16 16 17 17 18 18 19 19 19 18 17 16 16 17 17 16 16 17 17 17 17 17 17 17 16 16 16 15 14 14 14 12 7
11 11 12 11 11 12 12 12 12 11 11 11 11 10 9 9 11 10 8 9 6 6 7 6 6 6 5 5 5 5 6 8 9 7 6 7 10 13 11 14 15 15 16 16 17 17 17 17 17 16 15 14 14 15 15 15 15 15 16 17 17 17 17 17 17 16 16 16 15 14 14 14 9 10
10 11 12 12 12 12 11 11 12 12 12 11 11 11 10 10 9 9 9 11 13 5 6 5 4 6 6 4 5 6 6 7 10 6 7 8 10 8 7 11 13 14 15 16 15 15 16 16 16 15 15 15 16 16 16 16 16 16 16 17 17 17 17 16 16 16 15 15 14 14 15 13 14 14
11 12 13 13 13 12 12 12 11 11 12 11 11 10 10 10 9 9 9 11 13 8 5 4 4 2 3 4 6 7 6 6 5 6 6 6 5 6 6 6 9 12 14 14 14 15 15 15 15 15 15 15 15 16 16 16 15 16 16 16 17 17 16 15 15 15 14 14 14 15 15 15 15 16
11 12 13 13 12 12 13 13 12 12 12 11 11 11 11 11 10 10 10 11 10 14 3 6 4 5 4 7 4 8 7 7 4 5 5 4 5 6 6 5 6 10 12 13 13 13 13 14 14 15 16 16 16 16 16 15 16 15 16 16 16 16 15 15 15 15 15 15 16 16 16 16 16 15
11 11 13 13 12 11 13 13 12 12 12 11 12 13 11 11 11 10 12 10 11 12 9 5 5 6 6 8 7 6 6 5 4 5 5 6 5 4 5 6 6 9 11 13 14 15 14 14 15 15 14 14 14 15 15 15 14 14 15 16 16 16 15 16 15 15 15 16 17 17 16 17 17 15
11 12 12 13 13 12 13 13 13 12 11 11 11 13 12 11 11 10 10 11 10 9 9 6 8 6 6 6 5 4 3 5 4 5 5 3 5 5 5 6 6 8 11 12 13 14 14 14 13 13 13 14 14 14 14 14 14 15 15 16 15 15 16 16 15 15 15 16 16 16 17 18 16 15
12 12 13 13 14 14 14 14 14 12 14 12 11 12 11 11 10 9 9 10 10 10 10 9 6 5 5 5 4 4 5 4 4 3 5 5 5 5 5 4 6 8 11 12 12 12 12 11 11 12 12 13 13 14 14 14 14 15 15 15 14 14 13 13 14 15 15 16 16 16 17 17 17 15
10 12 13 13 13 14 14 14 14 13 15 14 13 13 11 11 10 10 10 10 11 11 11 10 8 4 6 4 5 4 5 5 4 4 4 3 3 5 6 6 5 4 4 4 5 6 7 9 11 11 10 11 12 13 13 13 13 14 14 13 12 12 13 14 14 15 15 16 16 16 16 15 16 14
11 12 12 13 14 15 15 15 15 14 14 13 15 14 13 11 11 11 10 10 11 11 10 9 8 8 5 6 7 4 4 4 5 6 5 6 4 5 6 7 5 4 5 6 7 7 6 6 6 8 11 11 11 12 12 12 12 12 12 12 13 13 13 14 14 14 15 15 14 14 14 14 14 14
11 13 13 14 14 16 16 16 16 15 14 12 13 13 12 11 11 11 10 10 10 10 10 10 9 8 7 3 4 1 3 3 4 6 6 7 7 7 5 6 6 3 5 5 4 4 5 5 5 7 8 10 11 11 10 11 11 12 13 13 12 13 13 13 12 12 13 13 13 14 14 14 15 15
12 13 13 14 15 17 20 22 20 17 15 12 13 13 13 12 12 11 10 10 10 9 9 9 7 6 6 7 6 6 7 9 11 4 6 7 7 6 5 5 5 5 5 4 4 5 5 4 5 4 5 6 7 7 7 8 12 12 12 12 12 12 12 12 12 13 13 14 15 15 16 16 15 14
12 14 14 15 23 24 24 24 24 23 21 20 15 13 13 13 12 12 12 11 10 10 10 11 9 8 9 9 9 9 9 7 2 3 6 6 7 3 5 5 5 6 6 5 6 6 5 5 5 4 6 5 4 4 4 6 6 9 12 12 12 12 12 13 13 14 15 15 15 16 16 15 13 11
14 13 14 14 18 22 25 24 25 23 22 21 21 19 18 16 15 13 13 12 11 11 11 10 8 9 11 11 8 9 8 5 7 7 6 7 5 5 4 7 4 3 8 7 6 5 5 6 6 5 6 5 4 4 5 6 8 10 11 11 12 12 12 12 13 14 14 13 14 14 13 11 12 13
13 14 15 15 14 16 19 19 19 21 22 22 22 20 18 18 19 18 17 14 12 12 11 10 10 10 11 11 7 7 6 7 6 6 6 7 7 6 6 5 6 3 6 6 5 6 4 6 5 5 6 5 5 6 5 7 7 8 7 7 8 8 9 10 10 11 10 11 12 12 11 12 12 12
12 12 14 15 16 14 21 20 17 15 16 19 23 22 20 19 20 20 20 19 16 13 14 13 11 11 11 10 9 8 8 5 7 5 6 7 6 7 7 8 7 2 3 3 2 6 4 6 5 6 5 5 4 5 5 7 7 6 5 6 6 7 8 8 9 9 11 10 9 11 12 13 12 12
10 12 12 13 13 13 13 14 16 15 14 15 16 16 15 14 16 18 20 19 19 15 13 13 13 12 10 11 10 9 7 8 8 7 8 7 7 7 10 7 4 2 5 7 4 4 4 5 5 7 5 4 4 4 5 7 7 6 6 6 6 6 8 11 11 10 10 13 15 12 12 12 11 12
10 11 13 13 12 11 12 12 15 14 15 15 15 15 16 15 13 13 13 14 12 11 11 11 13 11 10 11 9 5 7 9 8 8 7 8 8 5 1 1 1 2 3 2 4 6 3 4 5 6 4 3 4 3 4 8 7 7 7 7 7 7 8 10 10 11 12 13 13 12 11 11 11 11
5 6 9 10 8 8 10 13 19 17 13 14 15 14 13 12 11 11 12 16 15 12 11 10 10 9 8 9 8 7 6 6 4 3 3 3 3 4 5 6 2 3 3 6 6 3 2 2 6 4 3 3 3 2 2 4 7 6 5 5 6 7 7 8 9 9 10 12 13 13 12 12 12 11
9 7 6 2 1 5 5 9 17 15 12 9 9 10 12 10 9 9 8 10 13 13 13 11 11 9 8 10 9 9 10 7 6 5 5 6 5 5 5 4 2 5 4 6 8 4 2 3 4 3 2 4 3 4 2 2 4 5 5 5 5 6 6 7 8 8 8 9 10 11 12 12 12 12
9 13 30 20 7 4 2 6 8 11 11 8 7 7 7 8 9 8 7 7 8 12 11 9 7 7 8 9 10 11 11 11 9 7 8 5 6 6 6 6 5 3 3 6 7 4 3 3 3 3 1 1 0 2 2 2 3 5 5 6 6 5 5 4 5 6 7 9 9 10 10 10 9 6
10 13 16 24 16 12 10 4 6 9 7 5 6 6 7 7 8 9 9 9 8 7 7 5 4 2 5 6 6 6 10 11 9 6 5 5 6 6 6 5 2 2 4 5 9 7 2 4 3 4 2 1 0 1 3 3 2 2 3 3 3 5 5 5 5 5 6 8 9 9 10 10 9 7
12 12 12 13 15 19 18 18 15 8 1 3 3 5 8 9 10 6 10 10 10 10 8 9 8 7 5 5 6 4 4 6 7 6 5 5 5 5 4 5 5 3 2 1 10 7 2 4 4 2 2 3 2 1 1 2 2 2 2 3 2 3 3 4 3 4 6 7 8 9 10 11 11 5
10 9 9 9 16 17 17 17 18 17 16 14 11 9 5 3 0 2 3 11 14 9 9 7 6 6 6 4 4 6 7 6 5 4 5 5 5 6 5 5 5 5 3 1 2 2 3 5 4 3 1 2 1 2 0 1 2 3 3 3 3 2 2 2 2 2 3 4 6 8 9 10 10 7
9 9 8 9 10 15 17 18 18 19 18 17 10 8 9 11 11 7 6 5 5 7 7 7 6 6 5 5 6 6 5 5 5 5 5 6 6 6 6 7 6 4 2 0 8 3 2 0 4 6 3 3 2 1 2 1 2 3 3 3 3 4 5 4 3 3 3 4 4 5 7 11 11 9
6 5 6 6 9 13 15 15 16 16 15 12 10 12 12 11 11 9 6 7 6 5 5 5 6 5 6 5 4 5 5 4 4 5 6 6 7 6 5 5 4 5 4 7 7 9 6 3 3 6 4 3 4 2 0 2 1 2 3 3 4 4 5 4 5 4 4 4 3 6 6 6 8 6
3 4 4 4 9 11 11 11 13 13 13 11 16 17 16 15 12 8 9 9 7 6 5 5 4 5 4 5 4 3 2 3 4 4 4 5 6 6 5 5 4 5 6 6 6 6 6 4 4 3 6 7 5 4 3 1 1 3 2 2 3 4 5 4 5 4 4 4 4 5 4 4 4 4
1 1 2 5 9 10 10 11 10 9 11 13 14 15 15 12 9 9 8 8 8 8 7 6 5 3 5 4 2 1 1 1 0 1 0 0 1 3 2 3 3 4 2 4 6 7 6 6 6 5 5 4 6 4 4 3 3 3 3 3 2 3 4 4 5 5 5 5 5 6 7 6 6 6
3 5 7 7 7 8 7 6 6 6 6 9 10 11 10 7 7 7 8 8 8 7 6 6 5 3 4 3 1 0 2 2 1 2 3 3 4 4 5 4 3 1 1 3 5 6 6 5 7 7 5 4 4 5 4 4 2 3 4 4 3 0 5 7 6 5 5 7 6 6 4 4 5 6
3 4 5 4 4 4 7 7 5 5 5 6 6 4 4 5 5 5 5 6 6 6 5 5 5 3 5 3 4 4 4 3 2 2 4 5 3 3 4 6 3 4 7 5 1 4 5 5 6 7 6 4 2 4 4 4 3 4 5 5 5 5 3 6 6 6 5 4 4 3 4 4 3 4
1 2 3 4 3 3 4 4 4 4 3 3 3 3 3 3 2 4 6 6 4 4 3 2 3 3 4 5 5 4 5 5 5 4 3 3 4 3 4 4 2 2 2 1 2 3 3 4 6 5 6 7 6 5 3 4 5 5 5 5 5 3 2 6 5 5 5 4 3 4 4 4 5 4
1 2 4 5 5 5 5 5 4 3 2 2 2 2 2 1 1 2 2 3 3 3 2 3 2 2 2 4 4 4 5 5 5 4 3 3 5 4 4 6 4 3 2 3 4 3 3 2 1 5 5 5 4 5 6 4 5 5 5 5 5 5 4 3 4 4 5 5 5 4 4 4 5 5
2 2 4 4 5 5 5 5 5 5 3 3 2 1 2 1 1 1 1 1 3 2 2 1 1 2 2 3 3 3 3 2 4 5 3 2 2 4 4 6 4 3 2 3 3 2 2 2 3 4 4 3 3 2 4 4 4 5 5 5 5 6 4 4 5 5 7 6 7 5 4 4 5 6
3 4 5 5 4 4 4 4 5 4 4 3 2 2 1 1 1 1 1 2 2 3 2 2 0 0 2 2 1 1 0 0 2 2 3 3 4 4 6 6 4 4 4 4 3 3 3 4 4 4 4 4 4 3 2 1 5 3 3 4 4 4 4 5 5 6 7 4 4 6 6 4 5 5
4 4 4 5 5 5 5 5 4 4 4 3 2 1 1 1 2 2 2 2 3 3 3 2 1 1 0 1 1 1 1 0 1 2 3 3 3 3 4 5 5 4 4 4 2 3 3 4 5 5 4 3 3 2 1 4 3 4 5 3 2 3 2 4 4 3 4 4 5 5 5 4 3 4
4 4 4 5 5 4 5 5 5 5 4 3 2 2 3 3 4 4 3 3 3 4 4 4 4 3 3 1 1 2 2 0 0 1 2 2 2 3 5 3 3 4 5 2 1 1 1 4 3 5 5 6 5 2 1 3 6 4 4 3 0 1 3 3 3 3 3 4 4 4 4 3 3 3
6 6 6 6 5 5 4 4 4 4 5 3 2 2 2 4 2 1 2 4 4 3 4 4 4 4 4 3 3 3 2 2 1 2 2 2 2 2 4 5 4 4 4 2 2 3 2 5 5 4 5 6 5 2 2 3 2 3 2 2 2 1 2 4 3 3 2 2 3 3 3 2 4 4
5 5 5 6 6 6 6 5 4 4 4 5 2 4 4 4 3 2 4 4 4 3 3 4 4 4 4 4 4 4 4 4 4 4 4 4 4 4 3 4 4 2 3 2 2 2 2 5 5 5 5 4 3 3 3 2 0 2 5 4 3 5 3 4 4 2 1 1 1 1 1 1 1 1
6 5 5 6 6 6 6 6 6 4 4 3 5 4 2 3 3 4 5 6 6 5 5 5 4 4 4 5 5 4 5 5 5 5 5 5 4 4 4 4 5 4 3 4 3 2 3 3 4 5 4 4 3 3 4 2 1 2 2 4 3 2 3 4 4 5 2 2 1 2 1 3 0 3
7 8 8 7 7 8 8 8 8 7 7 6 6 6 3 1 3 4 3 2 2 3 4 5 4 4 4 4 4 5 5 3 2 2 2 3 3 3 4 5 3 4 5 3 3 1 2 5 4 4 3 3 2 2 3 2 2 3 4 4 4 4 6 3 3 4 2 3 3 3 2 1 2 3
8 8 9 10 10 9 9 9 10 9 10 9 9 8 8 9 9 11 5 2 1 2 4 2 2 3 3 4 4 3 4 4 3 2 2 2 2 1 2 3 5 3 4 5 5 5 3 1 1 1 3 3 2 2 1 2 1 1 2 3 3 2 4 3 3 3 5 7 5 3 2 1 1 2
9 9 9 9 9 9 9 9 9 9 10 10 10 10 10 10 10 11 9 9 8 7 6 3 0 2 3 4 4 5 5 4 3 3 2 2 4 5 4 4 5 6 6 5 4 3 1 0 2 3 3 4 1 2 3 4 3 1 1 2 2 5 4 3 6 6 6 7 5 4 3 3 4 1
9 9 9 9 9 9 10 10 9 9 9 9 8 9 9 9 9 10 9 8 9 9 8 7 7 3 1 3 1 1 2 3 3 3 3 4 4 4 5 5 5 5 5 3 3 3 2 2 2 3 3 2 2 2 3 3 2 2 2 0 1 3 3 5 5 3 2 2 4 8 8 9 7 4
8 8 9 9 9 9 9 9 10 10 9 9 9 9 9 8 8 7 8 9 10 9 8 8 8 8 8 3 2 3 3 2 2 3 2 3 4 5 4 4 5 5 5 5 5 4 3 3 1 0 2 3 3 4 4 5 4 3 1 0 0 1 2 2 3 4 4 5 5 3 1 3 6 6
Wind_Direction
221 225 223 221 220 217 217 219 219 220 222 223 222 218 220 210 223 240 248 250 245 224 193 221 260 208 216 221 218 218 223 226 228 234 234 239 242 243 240 238 237 237 237 236 236 234 233 233 233 235 236 235 234 236 239 243 246 248 247 242 239 238 237 235 234 232 229 228 227 227 228 230 231 238
214 221 222 220 225 221 218 221 226 220 219 223 222 221 220 205 214 218 234 257 199 241 220 203 238 225 222 226 231 214 227 231 230 233 235 237 240 245 243 242 240 239 238 238 236 234 232 230 230 231 233 233 234 235 236 238 239 241 244 246 242 238 237 235 232 230 227 225 225 223 224 225 224 233
213 217 221 216 220 220 219 219 224 225 222 222 222 223 217 215 211 213 216 253 244 183 228 226 221 231 227 217 230 233 229 235 227 227 233 236 240 242 246 245 245 244 242 239 236 235 233 232 232 232 233 235 236 237 238 239 240 240 241 243 244 240 238 237 234 229 226 224 222 219 219 217 189 211
208 213 218 216 217 218 217 220 222 224 224 224 224 222 219 220 210 206 212 226 251 192 214 212 226 219 238 222 220 237 241 236 230 222 224 235 241 247 247 249 244 242 240 239 236 233 232 232 233 233 232 232 234 235 235 236 237 238 240 241 241 239 237 235 234 232 228 223 219 217 216 200 195 213
210 213 220 221 221 218 216 220 220 221 222 221 224 224 222 222 210 198 205 223 246 247 212 231 241 240 202 250 208 228 231 234 227 215 221 222 224 234 239 245 246 243 242 238 235 233 232 232 234 236 238 239 238 238 237 235 235 236 237 238 238 238 238 235 232 230 227 222 218 216 211 196 197 207
209 212 217 220 221 216 219 221 221 219 217 215 218 222 219 220 213 194 199 220 229 251 199 234 229 245 190 236 205 208 219 234 226 222 226 223 221 229 235 240 248 242 239 240 240 241 243 245 246 244 243 241 241 241 240 238 236 235 235 235 234 233 232 230 227 225 222 218 216 214 208 201 203 205
214 213 213 216 216 215 220 223 224 221 220 213 215 219 217 220 215 203 203 200 222 236 242 200 223 211 205 211 226 219 223 224 206 222 231 229 229 223 225 236 244 245 239 238 240 243 244 244 245 245 246 246 245 243 242 240 239 236 233 232 230 227 224 224 223 221 219 217 216 214 205 204 206 206
219 216 214 217 218 217 217 219 221 218 218 215 214 217 217 216 217 211 206 207 215 225 240 218 218 212 209 236 243 235 228 224 226 218 241 241 242 240 230 230 242 245 242 239 238 238 240 242 245 248 249 249 249 247 243 239 235 231 229 228 225 221 220 218 217 216 217 218 217 212 205 205 203 201
216 216 215 216 216 219 219 219 218 213 212 212 212 215 212 211 214 213 206 209 216 225 230 240 218 206 218 229 232 208 218 245 248 254 239 242 248 254 249 240 237 244 242 236 233 235 239 244 245 247 247 247 246 244 241 237 233 229 226 223 221 221 220 213 212 215 216 217 216 212 207 203 204 203
225 223 223 220 217 219 217 220 219 212 211 208 211 214 210 207 205 207 204 205 211 218 230 229 240 197 213 229 230 205 202 218 252 270 265 270 254 250 265 249 239 232 225 214 224 231 234 236 239 244 244 243 243 242 238 232 227 225 226 222 216 214 212 210 210 213 216 217 215 211 209 199 206 208
224 225 226 222 222 224 221 222 222 215 210 206 208 209 211 204 198 199 202 202 205 212 222 229 231 240 224 204 239 222 195 206 214 235 258 262 239 231 233 263 251 218 227 226 218 215 213 226 234 244 244 242 239 235 229 224 220 219 218 214 209 209 210 211 212 214 217 217 209 204 203 200 194 192
231 231 230 228 225 226 227 225 227 219 215 207 208 207 204 203 197 198 200 201 203 209 216 222 224 221 229 218 236 159 143 216 267 225 216 243 255 249 228 228 248 232 211 217 201 211 215 221 238 260 255 245 241 238 234 222 214 213 210 208 207 208 210 212 214 215 214 208 199 196 200 199 193 192
236 239 237 235 231 230 231 227 227 223 214 208 209 205 199 199 195 198 198 201 201 211 215 225 223 223 222 222 219 216 208 209 229 196 185 232 243 252 269 261 226 215 211 224 212 204 191 188 211 209 238 245 239 239 230 236 220 213 208 208 208 209 209 209 208 206 202 201 198 194 198 197 193 191
241 240 239 238 235 234 234 232 228 226 218 213 211 204 197 196 193 194 196 198 201 206 214 222 213 219 233 231 218 225 226 220 202 171 190 216 239 229 250 277 243 205 208 215 221 219 185 186 205 195 234 243 220 231 217 231 224 216 210 208 207 208 206 203 203 201 200 200 196 196 199 191 180 165
247 244 242 240 237 235 234 232 229 227 220 217 216 211 200 196 190 189 194 201 198 204 216 218 210 219 233 236 220 223 231 205 205 208 195 219 212 209 220 258 297 230 194 212 223 232 185 179 193 201 226 230 219 216 225 238 231 221 209 207 205 205 203 201 201 200 198 195 194 196 193 177 163 167
246 248 248 245 243 234 226 226 226 225 222 217 216 214 208 199 197 195 191 193 197 202 211 214 215 214 225 236 217 221 206 216 203 210 205 207 209 212 218 228 237 254 187 196 204 244 165 181 208 214 225 226 222 219 223 231 234 227 220 214 209 205 199 195 193 197 186 187 190 183 176 181 175 172
244 247 252 255 244 226 218 220 221 221 220 216 214 213 211 205 200 203 203 198 196 192 202 210 215 210 217 225 227 208 202 178 202 198 208 213 208 209 219 229 234 244 174 148 200 242 194 175 193 221 226 217 216 220 222 229 232 228 218 201 189 180 168 158 166 182 153 160 179 189 186 190 176 175
251 250 253 252 236 217 212 215 216 216 211 208 209 210 208 209 207 206 205 206 206 197 199 204 216 216 202 216 218 211 181 171 198 191 214 202 205 206 222 231 232 209 179 183 186 234 221 191 191 217 221 185 203 212 201 205 213 198 197 187 179 169 156 156 175 188 162 163 195 194 182 191 190 182
259 255 253 243 224 210 210 209 209 208 205 200 199 201 205 207 202 201 206 208 207 206 210 209 216 213 201 215 216 190 180 195 202 193 203 197 203 205 143 53 195 200 210 193 153 228 244 189 193 224 193 174 205 200 191 192 201 189 180 184 183 172 165 166 175 184 176 173 188 200 192 190 192 191
270 275 258 225 207 206 207 205 199 202 194 191 190 191 199 203 201 204 206 204 206 206 208 210 210 211 202 202 207 190 182 186 169 137 114 112 139 158 192 218 201 233 177 191 197 211 250 210 195 211 143 150 192 198 180 179 189 192 183 179 172 169 168 171 180 190 194 187 184 189 194 194 191 190
349 339 343 357 225 189 187 174 172 160 150 153 159 179 184 182 192 205 203 205 205 211 217 217 216 213 199 193 195 179 169 169 161 154 174 195 165 166 192 220 200 230 188 188 208 171 193 201 188 150 151 177 189 192 151 95 168 178 178 174 173 177 179 177 176 183 194 202 202 197 195 194 192 186
9 22 23 13 11 28 92 141 139 142 138 147 149 153 172 169 181 192 187 187 204 210 219 228 231 213 201 185 175 169 168 170 169 174 201 187 153 175 184 204 211 226 201 201 181 172 214 147 157 114 81 46 23 144 117 115 114 141 152 163 169 177 177 177 181 187 193 197 201 203 200 197 184 162
32 34 30 23 22 34 21 46 158 155 145 149 168 167 175 190 200 206 188 190 178 155 181 192 153 152 180 164 163 165 168 174 188 191 186 144 165 179 200 194 123 221 264 201 166 197 186 144 179 139 112 176 266 150 149 126 121 132 134 141 143 163 162 154 157 180 195 197 198 197 193 186 173 177
32 35 39 22 12 40 41 46 43 42 48 189 162 179 193 201 213 202 189 186 177 174 176 183 183 183 163 153 158 150 180 182 202 188 186 183 170 188 190 183 186 181 229 234 172 180 143 160 161 143 134 141 221 199 103 131 123 127 126 114 139 124 118 108 111 149 180 188 185 182 178 175 186 155
32 32 31 36 21 32 41 46 48 52 56 61 63 52 62 55 208 335 187 177 171 168 171 163 167 174 187 156 174 174 187 183 186 185 187 211 194 187 192 187 205 234 243 273 262 174 147 168 140 125 121 92 134 116 142 110 141 163 168 156 136 137 124 108 120 111 111 131 153 162 170 178 198 185
28 26 22 32 24 34 39 40 42 41 42 49 52 54 67 63 57 69 85 88 145 164 160 160 160 162 167 185 187 179 170 176 175 185 193 205 211 208 200 192 187 205 213 11 115 62 47 28 178 154 132 116 71 70 126 210 174 171 158 175 181 159 162 149 125 116 129 138 136 158 173 181 197 205
27 17 15 15 20 42 44 43 44 46 44 44 41 43 46 61 66 64 57 62 69 96 113 110 127 146 167 165 142 138 139 169 172 183 192 200 205 212 216 216 193 176 167 159 187 149 160 173 187 175 147 140 128 124 103 160 190 123 180 177 177 164 178 163 146 153 147 156 148 137 139 168 202 224
27 21 15 10 24 34 47 52 55 50 47 46 37 35 32 36 43 50 51 49 39 51 79 112 133 135 117 109 109 121 142 171 177 184 201 203 197 197 193 188 161 153 159 171 173 162 152 157 166 200 153 146 139 169 184 232 158 159 161 120 193 180 169 159 148 161 155 154 140 145 144 143 187 187
80 99 315 27 31 21 29 40 41 45 45 47 43 39 37 36 38 36 47 54 44 44 51 49 33 27 73 85 98 181 136 229 139 144 49 23 55 104 120 128 133 165 145 144 165 168 172 162 166 162 150 146 155 172 158 189 171 144 151 151 230 204 165 176 184 178 168 163 169 168 189 179 155 181
360 351 348 0 18 28 20 30 35 34 34 40 45 44 42 40 38 37 46 49 54 49 42 38 42 352 326 10 326 262 124 100 104 157 121 103 89 116 118 95 26 336 79 153 176 174 174 166 160 165 148 154 164 177 184 147 132 145 155 181 196 151 185 173 186 187 179 177 183 190 201 188 179 163
345 359 13 3 11 26 20 31 32 38 34 31 31 36 37 39 33 36 53 67 65 55 26 22 13 349 331 354 31 32 52 62 15 47 101 89 77 118 105 88 34 20 358 340 134 156 177 167 162 157 153 175 161 209 188 164 163 174 192 188 173 206 202 161 180 181 191 187 182 168 166 176 188 185
338 353 329 335 357 5 15 19 22 23 31 49 41 37 27 33 30 30 60 98 86 87 80 61 320 8 14 36 25 18 30 21 11 354 45 100 115 120 125 77 50 84 104 303 340 44 117 159 163 174 162 159 182 215 148 177 194 198 191 196 208 240 109 186 185 189 175 162 165 191 180 176 192 195
4 337 347 353 4 16 9 4 3 359 11 23 61 81 89 87 44 66 64 73 76 79 71 64 37 12 14 31 29 35 32 16 3 357 32 39 80 58 78 119 156 84 57 44 22 24 22 16 188 186 178 180 170 144 149 183 217 188 188 175 194 221 198 156 182 185 150 159 205 199 200 189 196 199
4 354 346 352 359 353 357 349 345 336 331 333 348 40 88 83 81 94 110 116 111 100 109 109 88 57 66 47 40 35 43 8 16 359 25 23 46 87 92 100 100 137 140 89 48 21 14 48 69 66 69 70 73 127 163 152 164 191 187 179 189 210 178 165 192 186 176 187 184 174 188 205 203 206
14 345 346 336 343 338 330 322 315 318 315 294 291 307 347 144 164 160 151 165 135 132 131 123 79 67 95 118 131 108 160 18 339 10 22 51 52 108 122 112 119 106 91 75 45 5 17 30 73 79 35 36 40 353 23 95 147 163 143 157 183 187 189 190 187 184 187 180 150 187 213 209 207 201
339 355 343 333 332 334 331 318 312 309 307 294 238 194 182 251 218 184 225 180 155 147 139 142 140 158 201 220 228 215 219 178 60 43 42 45 71 63 80 113 123 105 83 74 28 348 38 57 72 79 68 43 65 34 26 352 57 155 144 183 171 178 170 173 180 171 177 176 175 194 206 211 211 190
326 336 340 322 318 327 319 314 313 312 315 307 265 184 205 202 203 210 215 146 163 165 164 161 172 166 178 209 292 307 318 1 128 88 91 78 89 97 95 93 110 121 104 88 11 355 49 57 40 97 98 68 82 97 297 300 338 332 133 129 115 87 151 131 139 163 189 181 187 190 198 194 236 227
343 341 338 330 325 322 312 306 305 314 316 317 236 179 224 262 273 244 149 160 186 191 169 179 178 167 169 172 181 223 259 264 263 158 165 157 98 79 121 135 133 115 115 72 7 12 50 88 71 76 103 119 112 83 76 336 3 10 355 128 142 186 123 116 127 164 162 166 179 180 141 149 238 257
347 339 333 328 326 328 330 323 316 313 314 321 284 201 205 210 198 155 175 181 189 199 190 192 192 188 178 183 192 182 196 197 208 202 176 183 157 145 157 132 121 94 92 86 40 49 72 102 111 110 118 122 140 186 177 168 271 264 338 328 152 125 165 153 153 152 150 138 179 113 151 29 17 352
347 344 341 340 337 341 336 335 334 331 312 320 321 294 185 189 153 167 167 181 189 199 198 209 195 173 183 183 187 193 187 192 190 178 181 182 174 167 158 163 152 156 123 124 111 69 93 160 155 151 155 172 194 195 163 166 294 308 350 22 17 124 172 149 147 153 194 219 122 102 220 6 2 323
7 14 13 7 9 12 6 8 5 4 7 351 3 344 338 76 108 140 146 166 185 186 200 199 188 187 188 179 181 176 183 216 200 182 180 168 168 171 162 138 140 153 142 162 160 159 227 208 228 217 146 121 122 82 41 29 12 322 337 340 22 124 161 165 153 146 158 155 122 107 88 334 318 343
19 21 19 22 23 17 18 17 11 16 18 18 21 20 17 20 17 11 15 55 105 156 174 179 189 182 178 181 181 164 173 194 205 207 201 164 143 115 143 151 154 170 150 173 200 211 228 268 323 106 126 111 88 74 124 167 194 290 297 304 318 69 105 160 206 164 149 144 128 121 103 44 10 353
25 27 27 22 25 25 24 20 19 19 24 23 26 19 22 22 20 20 18 14 4 2 352 334 163 160 174 180 181 181 173 182 185 177 178 172 161 157 171 194 184 180 188 199 208 219 264 313 171 122 78 79 105 123 171 202 196 217 305 350 342 330 330 52 114 174 214 228 215 179 161 163 121 279
28 31 31 22 22 20 19 16 13 10 15 22 22 24 27 27 27 27 21 10 7 357 347 346 337 325 237 195 180 167 186 186 186 183 192 202 200 193 187 198 196 195 204 201 204 215 209 208 226 140 126 159 154 120 162 162 216 222 205 230 308 12 0 335 346 33 106 166 224 228 217 201 211 207
35 28 28 27 27 25 24 22 21 16 16 17 22 27 20 18 19 12 12 13 8 358 357 352 344 342 336 326 154 200 234 215 198 225 224 225 215 214 214 198 192 194 202 199 182 192 196 202 223 64 111 164 163 171 176 172 187 181 196 134 328 353 344 358 20 358 350 329 334 336 275 211 232 251